Weather in Aykino

Russia / Komi Republic     62°13′27″N   49°59′30″E
temp.,
°C
wind,
m/s
gust,
m/s
humid.,
%
clouds,
%
prec.,
mm/h
press.,
hPa
HPBL,
m
5 march, fri
fri500:00−15nnw369695 0.2 993251
03:00−16nw369697 0.6 995273
06:00−17nw2696100 0.4 996268
09:00−16nw2494100 0.7 997286
12:00−14nw2491100 0.3 998407
15:00−12nw3590100 0.5 1000528
18:00−15nw2696100 0.1 1002201
21:00−17nw269797 0.1 1003147
6 march, sat
sat600:00−17nw259795 0.0 1004144
03:00−18nw269795 0.1 1006205
06:00−19nw259694 0.1 1007249
09:00−18nw259191 0.1 1007421
12:00−16wnw248598 0.0 1008712
15:00−15w248699 0.1 1008799
18:00−19wsw2296100 0.1 100820
21:00−22wsw129998 0.1 100820
7 march, sun
sun700:00−23sw1210080 0.0 100720
03:00−24ssw1210078 0.0 100720
06:00−25sse1210054 0.0 100720
09:00−20sse239557 0.0 1006176
12:00−15se249089 0.0 1005368
15:00−13ese359094 0.0 1004482
18:00−17e3698100 0.0 1004138
21:00−19e2599100 0.1 1004116
8 march, mon
mon800:00−19ene3698100 0.0 1004164
03:00−20ene3799100 0.1 1004203
06:00−20ene3897100 0.0 1004279
09:00−19ene3795100 0.1 1004280
12:00−16ne4791100 0.0 1004407
15:00−15ne4890100 0.0 1004520
18:00−17ne4993100 0.0 1005479
21:00−19ne3995100 0.1 1007342
9 march, tue
tue900:00−22nne489698 0.0 1007250
03:00−25nne389697 0.0 1008245
06:00−27nne389579 0.0 1009240
09:00−26nne379374 0.0 1011272
12:00−21nne369064 0.0 1012398
15:00−20nne358871 0.0 1013501
18:00−25n239696 0.0 101477
21:00−28n249649 0.0 101682